DW4212 Weather Reports


Display with metric or nautical units.
time (UTC)temp
F
wind
direction
speed
MPH
gust
MPH
rain 1hr
in
rain 24hr
in
rain mn
in
humidity
%
barometer
mb
20260903013928 67 314 0.0 0.0 0.00 0.00 0.00 35 1026.2
20260903012929 67 314 0.0 0.0 0.00 0.00 0.00 35 1026.3
20260903011919 68 314 0.0 0.0 0.00 0.00 0.00 33 1026.3
20260903010910 68 314 0.0 0.0 0.00 0.00 0.00 33 1026.2
20260903004925 68 314 0.0 0.0 0.00 0.00 0.00 33 1026.2
20260903003913 68 314 0.0 0.0 0.00 0.00 0.00 34 1026.2
20260903002915 69 314 0.0 0.0 0.00 0.00 0.00 33 1026.2
20260903001924 71 314 0.0 0.0 0.00 0.00 0.00 29 1026.3
20260903000915 71 314 0.0 0.0 0.00 0.00 0.00 29 1026.2
20260902235917 71 314 0.0 0.0 0.00 0.00 0.00 29 1026.2
20260902234925 71 314 0.0 0.0 0.00 0.00 0.00 31 1026.3
20260902233913 74 314 0.0 1.0 0.00 0.00 0.00 26 1026.2
20260902232912 74 314 0.0 0.0 0.00 0.00 0.00 26 1026.2
20260902231919 74 314 0.0 0.0 0.00 0.00 0.00 26 1026.2
20260902230911 74 314 0.0 0.0 0.00 0.00 0.00 26 1026.2
20260902225913 75 314 0.0 0.0 0.00 0.00 0.00 25 1026.2
20260902224921 74 314 0.0 0.0 0.00 0.00 0.00 25 1026.1
20260902223929 74 313 0.0 0.0 0.00 0.00 0.00 26 1026.0
20260902222931 74 313 0.0 2.0 0.00 0.00 0.00 26 1025.9
20260902221919 75 311 0.0 0.0 0.00 0.00 0.00 25 1025.9
20260902220929 76 311 0.0 0.0 0.00 0.00 0.00 25 1025.8
20260902215926 76 311 0.0 0.0 0.00 0.00 0.00 24 1025.9
20260902214914 77 311 0.0 1.0 0.00 0.00 0.00 24 1025.8
20260902213923 78 306 0.0 5.0 0.00 0.00 0.00 23 1025.8
20260902211923 79 304 0.0 7.0 0.00 0.00 0.00 22 1025.8
20260902210911 79 229 0.0 4.0 0.00 0.00 0.00 22 1025.8
20260902205931 79 229 0.0 4.0 0.00 0.00 0.00 22 1025.7
20260902204918 79 220 0.0 2.0 0.00 0.00 0.00 23 1025.6
20260902203926 79 220 0.0 3.0 0.00 0.00 0.00 24 1025.6
20260902202923 79 220 0.0 5.0 0.00 0.00 0.00 24 1025.5
20260902201914 80 216 0.0 0.0 0.00 0.00 0.00 25 1025.5
20260902200921 80 216 0.0 0.0 0.00 0.00 0.00 26 1025.5
20260902195922 80 216 0.0 0.0 0.00 0.00 0.00 26 1025.4
20260902194930 81 216 0.0 0.0 0.00 0.00 0.00 27 1025.2
20260902193916 81 216 0.0 0.0 0.00 0.00 0.00 26 1024.9
20260902192920 82 216 0.0 2.0 0.00 0.00 0.00 26 1024.7
20260902191930 82 216 1.0 4.0 0.00 0.00 0.00 26 1024.6
20260902190919 83 165 0.0 0.0 0.00 0.00 0.00 26 1024.5
20260902185921 84 165 0.0 0.0 0.00 0.00 0.00 25 1024.3
20260902184915 84 165 0.0 3.0 0.00 0.00 0.00 24 1024.3
20260902183918 85 165 0.0 0.0 0.00 0.00 0.00 23 1024.2
20260902182920 86 165 0.0 0.0 0.00 0.00 0.00 23 1024.2
20260902181928 86 165 0.0 0.0 0.00 0.00 0.00 22 1024.1
20260902180918 87 165 0.0 2.0 0.00 0.00 0.00 22 1024.1
20260902175921 88 165 0.0 4.0 0.00 0.00 0.00 21 1024.0
20260902174910 88 165 0.0 5.0 0.00 0.00 0.00 21 1024.0
20260902173919 89 165 0.0 2.0 0.00 0.00 0.00 21 1024.0
20260902172926 89 165 0.0 6.0 0.00 0.00 0.00 21 1023.9
20260902171914 90 169 1.0 7.0 0.00 0.00 0.00 20 1023.8
20260902170924 90 139 2.0 6.0 0.00 0.00 0.00 20 1023.8
20260902165925 90 178 327.0 327.0 0.00 0.00 0.00 21 1024.2
20260902164913 91 184 0.0 7.0 0.00 0.00 0.00 21 1023.8
20260902163920 91 182 0.0 6.0 0.00 0.00 0.00 20 1023.9
20260902162922 91 159 1.0 5.0 0.00 0.00 0.00 20 1023.9
20260902161930 91 169 3.0 9.0 0.00 0.00 0.00 20 1024.0
20260902160921 91 186 1.0 8.0 0.00 0.00 0.00 20 1024.0
20260902155923 91 184 3.0 9.0 0.00 0.00 0.00 20 1024.0
20260902154912 92 167 0.0 5.0 0.00 0.00 0.00 20 1024.1
20260902153920 92 160 2.0 7.0 0.00 0.00 0.00 20 1024.1
20260902152924 93 188 0.0 9.0 0.00 0.00 0.00 20 1024.2
20260902151912 93 175 1.0 7.0 0.00 0.00 0.00 19 1024.2
20260902150926 93 208 0.0 6.0 0.00 0.00 0.00 19 1024.2
20260902145927 92 171 1.0 10.0 0.00 0.00 0.00 19 1024.3
20260902144917 93 181 1.0 4.0 0.00 0.00 0.00 20 1024.3
20260902143926 93 181 1.0 7.0 0.00 0.00 0.00 20 1024.3
20260902142931 93 186 0.0 6.0 0.00 0.00 0.00 21 1024.4
20260902141918 92 234 1.0 8.0 0.00 0.00 0.00 21 1024.5
20260902140911 92 190 1.0 10.0 0.00 0.00 0.00 22 1024.6
20260902135927 91 167 0.0 5.0 0.00 0.00 0.00 22 1024.6
20260902134916 91 167 3.0 11.0 0.00 0.00 0.00 23 1024.7
20260902133926 91 124 0.0 4.0 0.00 0.00 0.00 23 1024.7
20260902132929 91 180 0.0 10.0 0.00 0.00 0.00 23 1024.8
20260902131917 91 180 1.0 7.0 0.00 0.00 0.00 23 1024.8
20260902130927 91 157 0.0 9.0 0.00 0.00 0.00 23 1024.8
20260902125911 91 188 1.0 7.0 0.00 0.00 0.00 24 1024.9
20260902124959 90 168 0.0 7.0 0.00 0.00 0.00 24 1024.9
20260902123921 89 175 0.0 8.0 0.00 0.00 0.00 25 1024.9
20260902122923 89 142 2.0 7.0 0.00 0.00 0.00 25 1025.0
20260902121930 89 165 5.0 14.0 0.00 0.00 0.00 26 1025.2
20260902120922 89 171 0.0 5.0 0.00 0.00 0.00 27 1025.2
20260902115924 89 169 1.0 6.0 0.00 0.00 0.00 27 1025.3
20260902114918 88 167 1.0 5.0 0.00 0.00 0.00 27 1025.4
20260902113926 88 171 0.0 7.0 0.00 0.00 0.00 28 1025.5
20260902112911 89 192 0.0 10.0 0.00 0.00 0.00 28 1025.6
20260902111918 88 186 0.0 8.0 0.00 0.00 0.00 28 1025.7
20260902110929 87 182 3.0 7.0 0.00 0.00 0.00 27 1025.7
20260902105924 86 190 1.0 7.0 0.00 0.00 0.00 28 1025.8
20260902104917 86 180 0.0 8.0 0.00 0.00 0.00 28 1025.8
20260902103924 86 180 1.0 7.0 0.00 0.00 0.00 28 1025.9
20260902102926 86 178 1.0 8.0 0.00 0.00 0.00 29 1025.8
20260902101915 85 169 0.0 7.0 0.00 0.00 0.00 30 1025.7
20260902100928 85 169 2.0 7.0 0.00 0.00 0.00 29 1025.8
20260902095929 84 167 1.0 6.0 0.00 0.00 0.00 29 1025.8
20260902094917 83 166 1.0 6.0 0.00 0.00 0.00 28 1025.8
20260902092929 81 286 0.0 5.0 0.00 0.00 0.00 30 1025.7
20260902091918 79 302 0.0 0.0 0.00 0.00 0.00 31 1025.6
20260902090927 78 302 0.0 0.0 0.00 0.00 0.00 32 1025.6
20260902085911 77 302 0.0 3.0 0.00 0.00 0.00 33 1025.6
20260902084920 77 299 0.0 2.0 0.00 0.00 0.00 34 1025.5
20260902083928 76 299 1.0 4.0 0.00 0.00 0.00 34 1025.4
20260902082916 74 298 0.0 2.0 0.00 0.00 0.00 35 1025.3
20260902081913 74 298 0.0 0.0 0.00 0.00 0.00 36 1025.3
20260902080923 73 298 0.0 0.0 0.00 0.00 0.00 36 1025.3
20260902075926 73 298 0.0 0.0 0.00 0.00 0.00 38 1025.1
20260902074915 71 304 0.0 0.0 0.00 0.00 0.00 38 1025.2
20260902073926 69 304 0.0 0.0 0.00 0.00 0.00 40 1025.2
20260902072928 68 304 0.0 0.0 0.00 0.00 0.00 44 1025.1
20260902071914 67 304 0.0 0.0 0.00 0.00 0.00 45 1025.2
20260902070925 66 304 0.0 0.0 0.00 0.00 0.00 45 1025.1
20260902065929 65 304 0.0 0.0 0.00 0.00 0.00 46 1025.1
20260902064918 64 304 0.0 0.0 0.00 0.00 0.00 50 1025.0
20260902063929 62 304 0.0 0.0 0.00 0.00 0.00 50 1024.8
20260902062911 61 304 0.0 0.0 0.00 0.00 0.00 49 1024.7
20260902061925 61 304 0.0 0.0 0.00 0.00 0.00 49 1024.7
20260902060914 61 304 0.0 0.0 0.00 0.00 0.00 48 1024.6
20260902054918 61 304 0.0 0.0 0.00 0.00 0.00 48 1024.4
20260902053924 61 304 0.0 0.0 0.00 0.00 0.00 48 1024.2
20260902052923 61 304 0.0 0.0 0.00 0.00 0.00 47 1024.3
20260902051913 62 304 0.0 0.0 0.00 0.00 0.00 48 1024.3
20260902050924 62 304 0.0 0.0 0.00 0.00 0.00 46 1024.3
20260902045926 61 304 0.0 0.0 0.00 0.00 0.00 49 1024.1
20260902044912 60 304 0.0 0.0 0.00 0.00 0.00 51 1024.0
20260902042911 61 304 0.0 0.0 0.00 0.00 0.00 50 1023.8
20260902041921 61 304 0.0 0.0 0.00 0.00 0.00 50 1023.8
20260902040911 61 304 0.0 0.0 0.00 0.00 0.00 48 1023.9
20260902035913 62 304 0.0 0.0 0.00 0.00 0.00 49 1023.9
20260902034927 62 304 0.0 0.0 0.00 0.00 0.00 48 1023.8
20260902033917 63 304 0.0 0.0 0.00 0.00 0.00 46 1023.7
20260902032919 63 304 0.0 0.0 0.00 0.00 0.00 46 1023.8
20260902031928 64 304 0.0 0.0 0.00 0.00 0.00 44 1023.8
20260902030920 63 304 0.0 0.0 0.00 0.00 0.00 45 1023.7
20260902025922 63 304 0.0 0.0 0.00 0.00 0.00 45 1023.7
20260902024911 63 304 0.0 0.0 0.00 0.00 0.00 46 1023.7
20260902023919 63 304 0.0 0.0 0.00 0.00 0.00 46 1023.7
20260902022926 64 304 0.0 0.0 0.00 0.00 0.00 46 1023.6
20260902021915 64 304 0.0 0.0 0.00 0.00 0.00 46 1023.7
20260902020924 64 304 0.0 0.0 0.00 0.00 0.00 46 1023.5
20260902015925 66 304 0.0 0.0 0.00 0.00 0.00 44 1023.5
20260902014918 66 304 0.0 0.0 0.00 0.00 0.00 44 1023.5